Location: Huesca
(42.1318°N, 0.4078°W)
Time: 10:43:25
(UTC+01:00)

AO-7 - Visible Passes

Search period start: 13 November 2024 00:00
Search period end: 23 November 2024 00:00
Orbit: 1439 x 1458 km, 102.0° (Epoch: 12 November)

Date Brightness Start Highest point End Pass type
(mag) Time Alt. Az. Time Alt. Az. Time Alt. Az.
13 Nov ? 06:22:08 10° NNE 06:30:14 53° ESE 06:38:15 10° S visible
13 Nov ? 19:16:34 10° SW 19:22:54 24° W 19:29:16 10° NW visible
14 Nov ? 05:23:31 10° NE 05:29:38 22° E 05:35:43 10° SE visible
14 Nov ? 07:14:50 10° NNE 07:23:09 79° WNW 07:31:24 10° SSW visible
14 Nov ? 18:14:12 10° S 18:22:21 56° WSW 18:30:32 10° NNW visible
15 Nov ? 06:15:06 10° NNE 06:23:04 48° ESE 06:30:59 10° S visible
15 Nov ? 19:09:00 10° SSW 19:15:41 26° W 19:22:25 10° NW visible
16 Nov ? 05:16:44 10° NE 05:22:25 20° E 05:28:03 10° SE visible
16 Nov ? 07:07:42 10° NNE 07:16:03 86° WNW 07:24:20 10° SSW visible
16 Nov ? 18:06:59 10° S 18:15:13 61° WSW 18:23:28 10° NNW visible
17 Nov ? 06:08:05 10° NNE 06:15:55 44° E 06:23:40 10° S visible
17 Nov ? 19:01:29 10° SSW 19:08:29 29° W 19:15:31 10° NW visible
18 Nov ? 05:10:03 10° NE 05:15:10 17° E 05:20:16 10° SE visible
18 Nov ? 07:00:36 10° NNE 07:08:57 87° ESE 07:17:15 10° SSW visible
18 Nov ? 17:59:48 10° S 18:08:05 68° WSW 18:16:24 10° NNW visible
18 Nov ? 19:59:31 10° WSW 20:02:14 12° W 20:04:57 10° WNW visible
19 Nov ? 06:01:05 10° NNE 06:08:44 39° E 06:16:19 10° SSE visible
19 Nov ? 18:54:02 10° SSW 19:01:17 33° W 19:08:36 10° NW visible
20 Nov ? 05:03:28 10° NE 05:07:56 15° E 05:12:21 10° ESE visible
20 Nov ? 06:53:29 10° NNE 07:01:50 80° ESE 07:10:07 10° SSW visible
20 Nov ? 17:52:37 10° SSE 18:00:57 74° WSW 18:09:19 10° NNW visible
20 Nov ? 19:51:08 10° WSW 19:54:58 14° W 19:58:49 10° WNW visible
21 Nov ? 05:54:06 10° NE 06:01:33 35° E 06:08:56 10° SSE visible
21 Nov ? 18:46:37 10° SSW 18:54:06 36° W 19:01:38 10° NNW visible
22 Nov ? 04:57:04 10° ENE 05:00:40 13° E 05:04:14 10° ESE visible
22 Nov ? 06:46:24 10° NNE 06:54:43 73° ESE 07:02:58 10° S visible
22 Nov ? 19:43:05 10° SW 19:47:42 16° W 19:52:22 10° NW visible
